Location: Dzierzno
(50.6159°N, 19.2852°E)
Time: 06:47:16
(UTC+00:00)

USA 281 - Pass Details

Date: 18 November 2025
Orbit: 1079 x 1080 km, 106.0° (Epoch: 27 November)

Event Time Altitude Azimuth Distance (km) Brightness Sun altitude
Exits shadow 16:24:37 19° 81° (E) 2,301 4.3 -14.3°
Maximum altitude 16:27:44 28° 41° (NE) 1,910 4.1 -14.8°
Drops below altitude 10° 16:33:06 10° 346° (NNW) 2,933 5.5 -15.6°
Sets 16:35:59 0° 336° (NNW) 3,892 6.3 -16.1°
